Location: Grandview
(34.8900°N, 117.1058°W)
Time: 07:46:35
(UTC-07:00)

Tiangong 2 - Pass Details

Date: 09 October 2017
Orbit: 388 x 392 km, 42.8° (Epoch: 19 October)

Event Time Altitude Azimuth Distance (km) Brightness Sun altitude
Exits shadow 05:00:50 41° 80° (E) 574 2.4 -23.1°
Drops below altitude 10° 05:03:06 10° 66° (ENE) 1,419 5.0 -22.6°
Sets 05:05:11 0° 64° (ENE) 2,277 6.2 -22.2°
